Time,TemperatureF,DewpointF,PressureIn,WindDirection,WindDirectionDegrees,WindSpeedMPH,WindSpeedGustMPH,Humidity,HourlyPrecipIn,Conditions,Clouds,dailyrainin,SoftwareType,DateUTC
2012-08-07 00:03:00,79.5,77.0,29.87,NW,304,0.0,1.0,91,0.00,,,0.87,weatherlink.com 1.10,2012-08-07 06:03:00,
2012-08-07 00:18:00,79.5,77.0,29.87,WNW,300,0.0,0.0,91,0.00,,,0.00,weatherlink.com 1.10,2012-08-07 06:18:00,
2012-08-07 00:33:00,79.5,77.0,29.86,WNW,300,0.0,0.0,91,0.00,,,0.00,weatherlink.com 1.10,2012-08-07 06:33:00,
2012-08-07 00:49:00,79.5,77.0,29.85,WNW,300,0.0,0.0,91,0.00,,,0.00,weatherlink.com 1.10,2012-08-07 06:49:00,
2012-08-07 01:04:00,79.5,77.0,29.85,WNW,287,0.0,0.0,92,0.00,,,0.00,weatherlink.com 1.10,2012-08-07 07:04:00,
2012-08-07 01:19:00,79.5,77.0,29.84,NW,312,0.0,0.0,92,0.00,,,0.00,weatherlink.com 1.10,2012-08-07 07:19:00,
2012-08-07 01:34:00,79.4,77.0,29.84,WNW,293,7.0,7.0,91,0.02,,,0.02,weatherlink.com 1.10,2012-08-07 07:34:00,
2012-08-07 01:49:00,79.1,77.0,29.83,WNW,295,0.0,2.0,93,0.02,,,0.02,weatherlink.com 1.10,2012-08-07 07:49:00,
2012-08-07 02:04:00,79.3,78.0,29.83,WNW,292,1.0,5.0,94,0.02,,,0.02,weatherlink.com 1.10,2012-08-07 08:04:00,
2012-08-07 02:19:00,78.9,77.0,29.82,WNW,291,1.0,4.0,92,0.02,,,0.02,weatherlink.com 1.10,2012-08-07 08:19:00,
2012-08-07 02:34:00,78.9,77.0,29.81,West,271,1.0,3.0,92,0.01,,,0.03,weatherlink.com 1.10,2012-08-07 08:34:00,
2012-08-07 02:49:00,79.0,77.0,29.81,North,350,1.0,3.0,93,0.02,,,0.04,weatherlink.com 1.10,2012-08-07 08:49:00,
2012-08-07 03:19:00,76.8,75.0,29.82,NNE,16,0.0,6.0,94,0.21,,,0.23,weatherlink.com 1.10,2012-08-07 09:19:00,
2012-08-07 03:34:00,76.8,75.0,29.82,WSW,237,2.0,8.0,95,0.28,,,0.31,weatherlink.com 1.10,2012-08-07 09:34:00,
2012-08-07 03:49:00,75.7,74.0,29.82,NNW,345,0.0,3.0,95,0.47,,,0.51,weatherlink.com 1.10,2012-08-07 09:49:00,
2012-08-07 04:04:00,75.6,74.0,29.82,NNW,331,0.0,0.0,96,0.51,,,0.56,weatherlink.com 1.10,2012-08-07 10:04:00,
2012-08-07 04:19:00,75.6,74.0,29.82,NW,311,0.0,0.0,96,0.35,,,0.58,weatherlink.com 1.10,2012-08-07 10:19:00,
2012-08-07 04:34:00,75.7,75.0,29.82,WNW,303,0.0,0.0,96,0.27,,,0.59,weatherlink.com 1.10,2012-08-07 10:34:00,
2012-08-07 04:49:00,76.1,75.0,29.82,WNW,294,0.0,0.0,97,0.08,,,0.59,weatherlink.com 1.10,2012-08-07 10:49:00,
2012-08-07 05:04:00,76.1,75.0,29.82,NW,311,1.0,4.0,96,0.03,,,0.59,weatherlink.com 1.10,2012-08-07 11:04:00,
2012-08-07 05:19:00,75.7,75.0,29.82,NW,315,0.0,3.0,96,0.01,,,0.59,weatherlink.com 1.10,2012-08-07 11:19:00,
2012-08-07 05:34:00,75.3,74.0,29.83,NW,315,0.0,0.0,96,0.00,,,0.59,weatherlink.com 1.10,2012-08-07 11:34:00,
2012-08-07 05:49:00,75.7,75.0,29.83,NW,315,0.0,0.0,97,0.00,,,0.59,weatherlink.com 1.10,2012-08-07 11:49:00,
2012-08-07 06:04:00,76.3,75.0,29.83,NW,315,0.0,0.0,97,0.00,,,0.59,weatherlink.com 1.10,2012-08-07 12:04:00,
2012-08-07 06:19:00,76.8,76.0,29.84,NW,321,0.0,0.0,96,0.00,,,0.59,weatherlink.com 1.10,2012-08-07 12:19:00,
2012-08-07 06:34:00,77.2,76.0,29.84,WNW,300,0.0,4.0,96,0.02,,,0.61,weatherlink.com 1.10,2012-08-07 12:34:00,
2012-08-07 06:49:00,77.6,76.0,29.83,WNW,288,3.0,5.0,96,0.05,,,0.64,weatherlink.com 1.10,2012-08-07 12:49:00,
2012-08-07 07:04:00,77.4,76.0,29.84,SSW,206,2.0,4.0,95,0.05,,,0.64,weatherlink.com 1.10,2012-08-07 13:04:00,
2012-08-07 07:19:00,77.6,76.0,29.84,WSW,251,3.0,5.0,95,0.06,,,0.65,weatherlink.com 1.10,2012-08-07 13:19:00,
2012-08-07 07:34:00,78.1,76.0,29.84,WSW,240,1.0,3.0,94,0.04,,,0.65,weatherlink.com 1.10,2012-08-07 13:34:00,
2012-08-07 07:49:00,78.1,77.0,29.84,NW,319,0.0,7.0,95,0.06,,,0.70,weatherlink.com 1.10,2012-08-07 13:49:00,
2012-08-07 08:04:00,78.5,77.0,29.84,West,261,1.0,7.0,95,0.07,,,0.71,weatherlink.com 1.10,2012-08-07 14:04:00,
2012-08-07 08:19:00,77.9,76.0,29.84,SSW,207,5.0,11.0,94,0.18,,,0.83,weatherlink.com 1.10,2012-08-07 14:19:00,
2012-08-07 08:34:00,77.8,76.0,29.84,WSW,239,0.0,9.0,95,0.22,,,0.87,weatherlink.com 1.10,2012-08-07 14:34:00,
2012-08-07 08:49:00,77.8,76.0,29.84,NNE,14,1.0,7.0,95,0.20,,,0.90,weatherlink.com 1.10,2012-08-07 14:49:00,
2012-08-07 09:04:00,77.8,76.0,29.84,WNW,282,2.0,9.0,95,0.20,,,0.91,weatherlink.com 1.10,2012-08-07 15:04:00,
2012-08-07 09:19:00,78.0,76.0,29.84,WSW,255,1.0,5.0,94,0.08,,,0.91,weatherlink.com 1.10,2012-08-07 15:19:00,
2012-08-07 09:34:00,77.4,76.0,29.83,WSW,251,2.0,12.0,94,0.14,,,1.01,weatherlink.com 1.10,2012-08-07 15:34:00,
2012-08-07 09:49:00,77.5,76.0,29.84,WSW,258,1.0,6.0,94,0.14,,,1.04,weatherlink.com 1.10,2012-08-07 15:49:00,
2012-08-07 10:19:00,77.5,76.0,29.84,North,357,4.0,12.0,94,0.24,,,1.15,weatherlink.com 1.10,2012-08-07 16:19:00,
2012-08-07 10:49:00,76.8,75.0,29.84,SW,220,2.0,23.0,95,0.42,,,1.46,weatherlink.com 1.10,2012-08-07 16:49:00,
2012-08-07 11:04:00,76.4,75.0,29.84,WSW,250,8.0,14.0,95,0.51,,,1.56,weatherlink.com 1.10,2012-08-07 17:04:00,
2012-08-07 11:19:00,76.2,75.0,29.85,SW,231,14.0,16.0,95,0.50,,,1.66,weatherlink.com 1.10,2012-08-07 17:19:00,
2012-08-07 11:34:00,76.1,75.0,29.84,NW,314,4.0,17.0,95,0.67,,,2.01,weatherlink.com 1.10,2012-08-07 17:34:00,
2012-08-07 11:50:00,76.2,75.0,29.84,WNW,295,3.0,11.0,96,0.97,,,2.43,weatherlink.com 1.10,2012-08-07 17:50:00,
2012-08-07 12:05:00,76.5,75.0,29.83,WNW,299,1.0,9.0,96,1.10,,,2.66,weatherlink.com 1.10,2012-08-07 18:05:00,
2012-08-07 12:20:00,76.4,75.0,29.84,West,262,3.0,10.0,96,1.06,,,2.73,weatherlink.com 1.10,2012-08-07 18:20:00,
2012-08-07 12:35:00,76.6,75.0,29.83,West,270,4.0,9.0,96,0.79,,,2.81,weatherlink.com 1.10,2012-08-07 18:35:00,
2012-08-07 12:50:00,76.6,75.0,29.82,SSE,154,2.0,12.0,96,0.43,,,2.88,weatherlink.com 1.10,2012-08-07 18:50:00,
2012-08-07 13:05:00,76.5,75.0,29.83,WNW,300,5.0,8.0,96,0.37,,,3.05,weatherlink.com 1.10,2012-08-07 19:05:00,
2012-08-07 13:20:00,76.2,75.0,29.82,NW,304,6.0,9.0,97,0.45,,,3.19,weatherlink.com 1.10,2012-08-07 19:20:00,
2012-08-07 13:35:00,76.3,75.0,29.82,North,357,1.0,7.0,96,0.50,,,3.31,weatherlink.com 1.10,2012-08-07 19:35:00,
2012-08-07 13:50:00,75.9,75.0,29.81,ESE,116,4.0,14.0,96,0.49,,,3.38,weatherlink.com 1.10,2012-08-07 19:50:00,
2012-08-07 14:05:00,75.5,74.0,29.81,SSE,165,5.0,11.0,96,0.38,,,3.44,weatherlink.com 1.10,2012-08-07 20:05:00,
2012-08-07 14:20:00,75.9,75.0,29.80,NNW,328,6.0,8.0,96,0.28,,,3.48,weatherlink.com 1.10,2012-08-07 20:20:00,
2012-08-07 14:35:00,76.2,75.0,29.80,West,276,2.0,6.0,96,0.19,,,3.51,weatherlink.com 1.10,2012-08-07 20:35:00,
2012-08-07 14:50:00,76.3,75.0,29.79,SW,220,5.0,9.0,96,0.13,,,3.52,weatherlink.com 1.10,2012-08-07 20:50:00,
2012-08-07 15:05:00,76.8,76.0,29.78,WNW,284,2.0,6.0,96,0.09,,,3.53,weatherlink.com 1.10,2012-08-07 21:05:00,
2012-08-07 15:20:00,76.8,76.0,29.78,WNW,300,1.0,7.0,96,0.08,,,3.56,weatherlink.com 1.10,2012-08-07 21:20:00,
2012-08-07 15:35:00,77.4,76.0,29.77,SW,218,3.0,12.0,96,0.09,,,3.60,weatherlink.com 1.10,2012-08-07 21:35:00,
2012-08-07 15:50:00,77.8,76.0,29.77,ENE,75,8.0,19.0,95,0.10,,,3.62,weatherlink.com 1.10,2012-08-07 21:50:00,
2012-08-07 16:05:00,77.9,76.0,29.78,SW,236,14.0,19.0,95,0.10,,,3.63,weatherlink.com 1.10,2012-08-07 22:05:00,
2012-08-07 16:20:00,77.9,76.0,29.78,SW,236,3.0,11.0,94,0.09,,,3.65,weatherlink.com 1.10,2012-08-07 22:20:00,
2012-08-07 16:35:00,77.9,76.0,29.78,SE,139,6.0,17.0,94,0.06,,,3.66,weatherlink.com 1.10,2012-08-07 22:35:00,
2012-08-07 16:50:00,78.2,76.0,29.78,SW,223,2.0,17.0,93,0.04,,,3.66,weatherlink.com 1.10,2012-08-07 22:50:00,
2012-08-07 17:05:00,78.5,76.0,29.79,WSW,252,3.0,19.0,92,0.04,,,3.67,weatherlink.com 1.10,2012-08-07 23:05:00,
2012-08-07 17:20:00,78.7,76.0,29.80,NW,310,1.0,10.0,92,0.02,,,3.67,weatherlink.com 1.10,2012-08-07 23:20:00,
2012-08-07 17:35:00,78.4,76.0,29.81,WSW,239,1.0,7.0,92,0.01,,,3.67,weatherlink.com 1.10,2012-08-07 23:35:00,
2012-08-07 18:05:00,77.7,76.0,29.83,NW,310,0.0,0.0,93,0.00,,,3.67,weatherlink.com 1.10,2012-08-08 00:05:00,
2012-08-07 18:20:00,77.1,76.0,29.83,WNW,298,0.0,0.0,95,0.00,,,3.67,weatherlink.com 1.10,2012-08-08 00:20:00,
2012-08-07 18:35:00,76.7,75.0,29.84,WNW,298,0.0,0.0,95,0.01,,,3.68,weatherlink.com 1.10,2012-08-08 00:35:00,
2012-08-07 18:50:00,76.6,75.0,29.84,WNW,299,0.0,0.0,96,0.02,,,3.69,weatherlink.com 1.10,2012-08-08 00:50:00,
2012-08-07 19:05:00,76.6,75.0,29.85,WNW,299,0.0,0.0,96,0.02,,,3.69,weatherlink.com 1.10,2012-08-08 01:05:00,
2012-08-07 19:20:00,76.6,75.0,29.86,NW,314,2.0,3.0,96,0.04,,,3.71,weatherlink.com 1.10,2012-08-08 01:20:00,
2012-08-07 19:35:00,76.5,75.0,29.86,WNW,291,1.0,4.0,96,0.04,,,3.72,weatherlink.com 1.10,2012-08-08 01:35:00,
2012-08-07 19:50:00,76.0,75.0,29.86,NW,304,4.0,6.0,96,0.04,,,3.73,weatherlink.com 1.10,2012-08-08 01:50:00,
2012-08-07 20:05:00,75.3,74.0,29.86,WNW,296,2.0,4.0,96,0.05,,,3.75,weatherlink.com 1.10,2012-08-08 02:05:00,
2012-08-07 20:20:00,74.9,74.0,29.86,East,86,1.0,3.0,96,0.05,,,3.76,weatherlink.com 1.10,2012-08-08 02:20:00,
2012-08-07 20:35:00,75.2,74.0,29.89,SSE,153,2.0,5.0,96,0.04,,,3.76,weatherlink.com 1.10,2012-08-08 02:35:00,
2012-08-07 20:50:00,75.5,74.0,29.89,SW,233,2.0,5.0,96,0.04,,,3.77,weatherlink.com 1.10,2012-08-08 02:50:00,
2012-08-07 21:05:00,75.7,75.0,29.90,SE,142,2.0,5.0,96,0.02,,,3.77,weatherlink.com 1.10,2012-08-08 03:05:00,
2012-08-07 21:20:00,76.4,75.0,29.90,SSE,152,3.0,10.0,96,0.01,,,3.77,weatherlink.com 1.10,2012-08-08 03:20:00,
2012-08-07 21:35:00,76.3,75.0,29.91,SSE,151,9.0,13.0,95,0.01,,,3.77,weatherlink.com 1.10,2012-08-08 03:35:00,
2012-08-07 21:50:00,76.4,75.0,29.91,SSE,151,13.0,15.0,95,0.00,,,3.77,weatherlink.com 1.10,2012-08-08 03:50:00,
2012-08-07 22:05:00,75.7,74.0,29.91,SSE,156,6.0,15.0,95,0.05,,,3.82,weatherlink.com 1.10,2012-08-08 04:05:00,
2012-08-07 22:20:00,75.4,74.0,29.91,ESE,103,1.0,5.0,95,0.21,,,3.98,weatherlink.com 1.10,2012-08-08 04:20:00,
2012-08-07 22:35:00,75.2,74.0,29.89,East,94,0.0,0.0,96,0.22,,,3.99,weatherlink.com 1.10,2012-08-08 04:35:00,
2012-08-07 22:50:00,75.2,74.0,29.89,NW,315,0.0,3.0,96,0.22,,,3.99,weatherlink.com 1.10,2012-08-08 04:50:00,
2012-08-07 23:05:00,75.0,74.0,29.89,NW,314,0.0,0.0,96,0.17,,,3.99,weatherlink.com 1.10,2012-08-08 05:05:00,
2012-08-07 23:20:00,75.2,74.0,29.88,WNW,297,0.0,0.0,96,0.02,,,4.00,weatherlink.com 1.10,2012-08-08 05:20:00,
2012-08-07 23:35:00,74.9,74.0,29.89,WNW,297,0.0,0.0,96,0.01,,,4.00,weatherlink.com 1.10,2012-08-08 05:35:00,
2012-08-07 23:50:00,75.1,74.0,29.89,WNW,297,0.0,0.0,97,0.01,,,4.00,weatherlink.com 1.10,2012-08-08 05:50:00,